User: anonymous
Location: Fort Wayne
(41.1310°N, 85.1290°W)
Time: 09:33:46
(UTC-04:00)
Language:

Cosmos 2056 Rocket - Orbit

View from above orbital plane
View from above orbital plane
View from above satellite
View from above satellite

Ground track
Ground track

The orbit data is extracted from the following two-line orbital elements,

1 20433U 90004B   14292.49655193  .00000366  00000-0  13461-3 0  8504
2 20433 074.0366 339.7071 0041898 344.2752 116.7968 14.35688829295735
Epoch (UTC): 19 October 2014 11:55:02
Eccentricity: 0.0041898
inclination: 74.0366°
perigee height: 743 km
apogee height: 803 km
right ascension of ascending node: 339.7071°
argument of perigee: 344.2752°
revolutions per day: 14.35688829
mean anomaly at epoch: 116.7968°
orbit number at epoch: 29573

The dashed part of the orbit path shows where the satellite is in the earth's shadow,  

DLR